User: anonymous
Location: Mentone
(34.5413°N, 85.5351°W)
Time: 13:33:33
(UTC-05:00)
Language:

SL-8 R/B - Orbit

View from above orbital plane
View from above orbital plane
View from above satellite
View from above satellite

Ground track
Ground track

The orbit data is extracted from the following two-line orbital elements,

1 33066U 08031G   14244.08383681  .00000117  00000-0  52911-4 0  8688
2 33066 048.4431 200.2172 0007442 129.3728 286.8448 14.68855421332751
Epoch (UTC): 01 September 2014 02:00:43
Eccentricity: 0.0007442
inclination: 48.4431°
perigee height: 659 km
apogee height: 670 km
right ascension of ascending node: 200.2172°
argument of perigee: 129.3728°
revolutions per day: 14.68855421
mean anomaly at epoch: 286.8448°
orbit number at epoch: 33275

The dashed part of the orbit path shows where the satellite is in the earth's shadow,  

DLR